THORAD AGENA D DEB, 4751

Orbit data source: Space-Track

THORAD AGENA D DEB, 4751 is space debris in SSO originally from a launch on Wed, 08 Apr 1970 UTC launched from the Air Force Western Test Range (AFWTR). Debris objects in space refer to the collection of defunct objects orbiting the Earth. Examples of debris include non-operational satellites, rocket bodies, and fragments generated from explosions, collisions, or faulty payload assembly.

Loading next visibility...
Identifier
4751, 1970-025CZ
Orbit
SSO
Country
Flag of USUS
Related business
Manufacturer
Unknown
Mission
Spacecraft
Bus & Motor
Unknown
Mass
Unknown
Launch date (UTC)
1970-04-08 (56 years ago)
Launch vehicle
Unknown
Launch site
Air Force Western Test Range (AFWTR)
Object type
Payload
Rocket body
Debris
Shape & HBR
Unknown shape, 0.1 m
Radar Cross Section
Medium (>0.1 m² and <1 m²)

Expand to show TLE details & history
Last TLE update: 16 hours ago

TLE from 16 hours ago
0 THORAD AGENA D DEB
1 04751U 70025CZ  26255.53625471  .00001250  00000-0  10904-2 0  9998
2 04751 100.1179   3.1160 0008229 198.3154 161.7705 13.88107416817687
Epoch: 2026-09-12T12:52Z
TLE epoch observation values (Epoch: 2026-09-12T12:52:12.406Z)
Latitude
-0.00003°
Longitude
178.52046°
Altitude
943.811 km
Speed
7.377 km/s
True Right ascension
00h 12m 27s
True Declination
0° 00' 00"
Sunlit
Object was in full shadow at epoch
Visualization orbit readout
Latitude
Unknown
Longitude
Unknown
Altitude
Unknown
Speed
Unknown
Apparent Right ascension
Unknown
Apparent Declination
Unknown
Sunlit
N/A
Visualization observer readout
Local Sidereal Time
21:20:57
Azimuth
Unknown
Elevation
Unknown
Doppler factor
Unknown
Orbital elements
Apogee altitude
938.56 km
Perigee altitude
926.528 km
Semi-major axis
7,310.681 km
Eccentricity
0.00082
Inclination
100.1179°
RAAN
3.116°
Arg. of periapsis
198.3154°
True anomaly
161.79997°
Mean anomaly
161.7705°
Eccentric anomaly
161.78524°
Mean motion
3.47221 °/min
Orbital period
103.68 mins
BSTAR
0.0010904
Loading maneuver chart data...
Computing Atmospheric mass density...
Loading historical data...
Loading historical data...
Loading historical data...
Loading historical data...
Loading historical data...
Loading historical data...
Loading historical data...

Documentation

Showing up to 5 results
|